Regional Weather Roundup
Issued by NWS

Home | Current Version | Previous Version | Graphics & Text | Print | Product List | Glossary On
Versions: 1 2 3 4 5 6 7 8 9 10 11 12 13 14 15 16 17 18 19 20 21 22 23 24 25 26 27
000
ASUS45 KBOU 171710
RWRCO

WEATHER ROUNDUP FOR COLORADO
NATIONAL WEATHER SERVICE DENVER/BOULDER CO
1000 AM MST SUN DEC 17 2017

NOTE: "FAIR" INDICATES FEW OR NO CLOUDS BELOW 12000 FEET WITH NO
SIGNIFICANT WEATHER AND/OR OBSTRUCTIONS TO VISIBILITY.

COZ001>005-013-030-031-171800-
...NORTHWEST COLORADO...

CITY           SKY/WX    TMP DP  RH WIND       PRES   REMARKS
CRAIG          CLOUDY    24  18  77 CALM      30.08R
HAYDEN         CLOUDY    24  16  71 E7        30.08R WCI  16
MEEKER         CLOUDY    24  10  55 CALM      30.07S
RABBIT EARS PA FOG       16  14  93 W7        29.98R VSB 1/2 WCI   6
STEAMBOAT SPGS CLOUDY    22  12  65 CALM      30.06S
WALDEN         FAIR      19  12  73 SE12      29.99F WCI   7
$$

COZ006>008-011-171800-
...WEST CENTRAL VALLEYS...

CITY           SKY/WX    TMP DP  RH WIND       PRES   REMARKS
GRAND JUNCTION   N/A     27   9  46 SE7       30.10R WCI  19
MONTROSE       FAIR      28   7  41 SE3       30.11R
EAGLE          FAIR      14   7  73 NW3       30.12S
RIFLE          FAIR      21  10  62 CALM      30.10R
DELTA          FAIR      28   6  40 CALM      30.12R
NUCLA          FAIR      28   0  29 CALM      30.11R
$$

COZ017>023-064>068-171800-
...SOUTHWEST COLORADO...

CITY           SKY/WX    TMP DP  RH WIND       PRES   REMARKS
DURANGO        FAIR      32  10  40 CALM      30.04S
CORTEZ         FAIR      37   5  26 NE6       30.04S
PAGOSA SPRINGS FAIR      34   4  27 CALM      30.05R
TELLURIDE      FAIR      31  -2  24 CALM      30.06R
WOLF CREEK PAS FAIR      19  -6  32 S8        30.09R WCI   9
$$

COZ009-010-012-014-032>034-037-058>063-171800-
...CENTRAL COLORADO...

CITY           SKY/WX    TMP DP  RH WIND       PRES   REMARKS
ASPEN          FAIR      26   5  40 CALM      30.01R
BUENA VISTA    FAIR      25  13  61 CALM      30.00R
COPPER MTN     NOT AVBL
BERTHOUD PASS  FAIR      12   1  62 W31       29.95R WCI -10
COTTONWOOD PAS FAIR      36   0  21 NW5       29.99R
GUNNISON       FAIR      17   8  67 CALM      30.08R
KREMMLING      FAIR      14   9  79 CALM      30.08F
LEADVILLE      FAIR      21  -3  35 NE6       29.97R WCI  13
MONARCH PASS   FAIR      18  -2  41 W26       30.12R WCI  -1
SALIDA         FAIR      25  11  54 CALM      30.07S
SUNLIGHT       FAIR      19  -4  35 SW6       30.06R WCI  11
WILKERSON PASS FAIR      21  -4  33 SW12G17   29.99R WCI   9
$$

COZ069>075-171800-
...SAN LUIS VALLEY/SANGRE DE CRISTO MOUNTAINS...

CITY           SKY/WX    TMP DP  RH WIND       PRES   REMARKS
ALAMOSA        FAIR      28  14  55 CALM      30.03R
DEL NORTE      FAIR      30  11  46 SW5       30.03R WCI  25
LA VETA PASS   FAIR      30   5  34 SW16G26     N/A  WCI  19
SAGUACHE       FAIR      30   9  40 CALM      30.04R
$$

COZ035-036-038>040-171800-
...NORTHERN COLORADO FRONT RANGE...

CITY           SKY/WX    TMP DP  RH WIND       PRES   REMARKS
DENVER INTL AP CLOUDY    30  25  81 E5        30.01S WCI  25
DMNS CITY PARK NOT AVBL
AURORA         CLOUDY    31  27  87 CALM      30.01S
FRONT RANGE AP CLOUDY    32  28  86 VRB3      30.02S
ERIE MUNI ARPT CLOUDY    33  29  88 E3        30.07S
BOULDER MUN AP CLOUDY    32  30  93 SE3       30.01F
CENTENNIAL     CLOUDY    32  26  78 VRB3      29.99F
BROOMFIELD     CLOUDY    32  28  86 SE5       30.01S WCI  27
FORT COLLINS   CLOUDY    33  31  92 S9        30.02F WCI  25
LONGMONT       CLOUDY    34  32  92 CALM      30.04S
$$

COZ041-046-047-076>085-087-088-171800-
...PIKES PEAK/PALMER DIVIDE AND SOUTHERN FOOTHILLS...

CITY           SKY/WX    TMP DP  RH WIND       PRES   REMARKS
COLO. SPRINGS  CLOUDY    26  24  92 SW5       30.02S WCI  20
A. F. ACADEMY  CLOUDY    25  23  90 SE3       29.99S
SCHRIEVER AFB  PTSUNNY   25  25 100 CALM      30.02R
CHEYENNE MTN   PTSUNNY   24  23  97 CALM      29.93S
ELLICOTT         N/A    N/A N/A N/A NW3       30.00S
FALCON         FOG       24  24  99 W3        30.00S VSB<1/4
FORT CARSON    CLOUDY    27  25  93 CALM      30.00S
LIMON          CLOUDY    30  24  78 VRB5      30.02S WCI  25
MONUMENT HILL  CLOUDY    25  23  93 CALM      29.99F
CANON CITY     CLOUDY    32  27  80 CALM      30.03S
WALSENBURG     CLOUDY    28  25  86 SE3       30.02S
TRINIDAD       CLOUDY    28  23  81 CALM      30.03R
$$

COZ042>045-048>051-090-091-171800-
...NORTHEAST COLORADO...

CITY           SKY/WX    TMP DP  RH WIND       PRES   REMARKS
GREELEY ARPT   CLOUDY    33  31  92 S5        30.03F WCI  29
AKRON          CLOUDY    31  29  92 SW5       30.02F WCI  26
BURLINGTON     CLOUDY    35  29  78 N8        30.03F WCI  29
WRAY           CLOUDY    36  32  87 NW7       30.05F
YUMA           CLOUDY    32  30  93 W3        30.04S
STERLING       CLOUDY    32  32 100 SW3       30.04S
HOLYOKE        FAIR      37  34  87 NW3       30.05S
FORT MORGAN    CLOUDY    32  30  95 SW3       30.04F
$$

COZ086-089-092>099-171800-
...SOUTHEAST COLORADO...

CITY           SKY/WX    TMP DP  RH WIND       PRES   REMARKS
PUEBLO         CLOUDY    33  26  75 W6        30.04F WCI  28
LA JUNTA       CLOUDY    36  27  69 W8        30.04F
LAMAR          FAIR      38  27  64 N9        30.02F
SPRINGFIELD      N/A     33  27  78 N16       30.01R WCI  23
$$




USA.gov is the U.S. government's official web portal to all federal, state and local government web resources and services.